45P/Honda-Mrkos-Pajdusakova (2011)

Japanese version
Home page
Updated on January 7, 2012

---------------------------------------------------------------------

* Profile

* Pictures

* Orbital Elements

Epoch 2011 Oct. 6.0 TT = JDT 2455840.5
T 2011 Sept. 28.78133 TT                                MPC
q   0.5296407            (2000.0)            P               Q
n   0.18779283     Peri.  326.24481     +0.56846550     -0.81935985
a   3.0200679      Node    89.00533     +0.77026055     +0.49840107
e   0.8246262      Incl.    4.25233     +0.28904267     +0.28327693
P   5.25
From 847 observations 2001 Apr. 4-2011 Nov. 3, mean residual 0".6.
     Nongravitational parameters A1 = +0.53, A2 = -0.0425.

* Finding Charts

* Magnitudes Graph

        m1 = 14.2 + 5 log d + 23.0 log r  [ ,0]  (             - 2011 Sept.28)
        m1 = 12.0 + 5 log d + 15.0 log r  [0, ]  (2011 Sept.28 -             )

---------------------------------------------------------------------

The orbital elements are published on M.P.E.C. 2011-V31.
The charts are made with StellaNavigator Ver.2.0 for Windows (AstroArts / ASCII).
The magnitudes graphs are made with Comet for Windows.

---------------------------------------------------------------------

Copyright(C) Seiichi Yoshida (comet@aerith.net). All rights reserved.